(83275) = 2000 LV3 = 2001 RQ81

Discovered at Palomar on 2001-09-14 by NEAT.

Orbit

Orbit type: Main Belt

Note: WebGL enabled browser required.

epoch2024-03-31.0
epoch JD2460400.5
perihelion date2022-04-11.50622
perihelion JD2459681.00622
argument of perihelion (°)110.33483
ascending node (°)186.29838
inclination (°)9.22074
eccentricity0.1123134
perihelion distance (AU)2.7171169
Tisserand w.r.t. Jupiter3.2
ΔV w.r.t. Earth (km/sec)10.7
semimajor axis (AU)3.0608966
mean anomaly (°)132.42132
mean daily motion (°/day)0.18404790
aphelion distance (AU)3.405
period (years)5.36
P-vector [x]0.44694794
P-vector [y]-0.86884966
P-vector [z]-0.21292676
Q-vector [x]0.89438723
Q-vector [y]0.42934105
Q-vector [z]0.12545018
absolute magnitude14.22
phase slope0.15
uncertainty0
referenceMPEC 2024-F50
observations used1975
oppositions22
arc length (days)10900
first opposition used1994
last opposition used2024
residual rms (arc-secs)0.67
perturbers coarse indicatorM-v
perturbers precise indicator003Ek
first observation date used1994-05-16.0
last observation date used2024-03-19.0
computer nameMPCLINUX
JD of orbit computation2456700.271879
perihelion JD uncertainty (days)1.6060E-04
argument of perihelion uncertainty (°)3.6915E-05
ascending node uncertainty (°)2.2966E-05
inclination uncertainty (°)6.2477E-06
eccentricity uncertainty 3.3724E-08
perihelion distance uncertainty (AU)1.0438E-07
Minimum Orbit Intersection Distances (in AU)
for orbit epoch: 2460400.5, reference: E2024-G17
Mercury2.28504
Venus2.00668
Earth1.71919
Mars1.33659
Jupiter1.85401
Saturn5.7227
Uranus15.1487
Neptune26.6447

Observations

2011 total observations over interval: 1994 05 16.14471 – 2024 03 19.132825
These data are available for download (format description).

Date (UT) J2000 RA J2000 Dec Magn Location Ref
1994 05 16.14471 13 03 56.23 -01 50 12.1 18.6 V 691 – Steward Observatory, Kitt Peak-Spacewatch MPS 38021
1994 05 16.16592 13 03 55.80 -01 50 07.7   691 – Steward Observatory, Kitt Peak-Spacewatch MPS 38021
1994 05 16.18726 13 03 55.27 -01 50 03.0   691 – Steward Observatory, Kitt Peak-Spacewatch MPS 38021
1999 03 21.276720 11 31 04.773 +00 09 02.21 18.86 V 645 – Apache Point-Sloan Digital Sky Survey MPS 79902
1999 03 21.280192 11 31 04.622 +00 09 03.73 19.63   645 – Apache Point-Sloan Digital Sky Survey MPS 79902
1999 03 22.273560 11 30 23.038 +00 16 08.71 18.88 V 645 – Apache Point-Sloan Digital Sky Survey MPS 79902
1999 03 22.277032 11 30 22.886 +00 16 10.20 19.66   645 – Apache Point-Sloan Digital Sky Survey MPS 79902
1999 03 23.28369 11 29 41.13 +00 23 21.2 18.3 R 699 – Lowell Observatory-LONEOS MPS 58915
1999 03 23.30917 11 29 39.97 +00 23 31.9   699 – Lowell Observatory-LONEOS MPS 58915
1999 03 23.33465 11 29 38.89 +00 23 42.4   699 – Lowell Observatory-LONEOS MPS 58915
1999 04 07.23053 11 20 23.63 +02 04 31.4 18.7 R 699 – Lowell Observatory-LONEOS MPS 58915
1999 04 07.24581 11 20 23.20 +02 04 36.0   699 – Lowell Observatory-LONEOS MPS 58915
1999 04 07.26108 11 20 22.66 +02 04 44.2   699 – Lowell Observatory-LONEOS MPS 58915
2000 06 04.27167 17 51 12.43 -09 31 29.6 18.7   704 – Lincoln Laboratory ETS, New Mexico MPS 16018
2000 06 04.28565 17 51 11.76 -09 31 28.5 18.5   704 – Lincoln Laboratory ETS, New Mexico MPS 16018
2000 06 04.29930 17 51 11.15 -09 31 26.5 18.8   704 – Lincoln Laboratory ETS, New Mexico MPS 16018
2000 06 04.31242 17 51 10.54 -09 31 24.1 18.4   704 – Lincoln Laboratory ETS, New Mexico MPS 16018
2000 06 04.32682 17 51 09.89 -09 31 22.2 18.6   704 – Lincoln Laboratory ETS, New Mexico MPS 16018
2000 06 06.32032 17 49 41.53 -09 26 24.9 17.2   704 – Lincoln Laboratory ETS, New Mexico MPS 16018
2000 06 06.33278 17 49 40.97 -09 26 21.6 17.6   704 – Lincoln Laboratory ETS, New Mexico MPS 16018
2000 06 06.34527 17 49 40.39 -09 26 21.5 17.4   704 – Lincoln Laboratory ETS, New Mexico MPS 16018
2001 08 27.40768 00 59 35.93 +07 21 27.6 18.7 R 699 – Lowell Observatory-LONEOS MPS 38021
2001 08 27.42656 00 59 35.63 +07 21 22.9   699 – Lowell Observatory-LONEOS MPS 38021
2001 08 27.44550 00 59 35.32 +07 21 17.7   699 – Lowell Observatory-LONEOS MPS 38021
2001 08 27.46451 00 59 35.02 +07 21 13.2   699 – Lowell Observatory-LONEOS MPS 38021
2001 09 11.29126 00 53 37.56 +06 02 00.9 18.2 R 699 – Lowell Observatory-LONEOS MPS 38021
2001 09 11.31470 00 53 36.75 +06 01 51.8   699 – Lowell Observatory-LONEOS MPS 38021
2001 09 11.33820 00 53 36.00 +06 01 42.5   699 – Lowell Observatory-LONEOS MPS 38021
2001 09 11.36175 00 53 35.17 +06 01 33.3   699 – Lowell Observatory-LONEOS MPS 38021
2001 09 14.26294 00 51 58.54 +05 42 42.5 18.9   644 – Palomar Mountain/NEAT MPS 36334
2001 09 14.28438 00 51 57.77 +05 42 34.3 18.7   644 – Palomar Mountain/NEAT MPS 36334
2001 09 14.30599 00 51 57.00 +05 42 25.7 18.4   644 – Palomar Mountain/NEAT MPS 36334
2001 09 16.38049 00 50 43.25 +05 28 26.8 19.2   704 – Lincoln Laboratory ETS, New Mexico MPS 38021
2001 09 16.39483 00 50 42.69 +05 28 21.2 19.3   704 – Lincoln Laboratory ETS, New Mexico MPS 38021
2001 09 16.40919 00 50 42.13 +05 28 14.4 19.4   704 – Lincoln Laboratory ETS, New Mexico MPS 38021
2001 09 16.42371 00 50 41.57 +05 28 08.3 19.4   704 – Lincoln Laboratory ETS, New Mexico MPS 38021
2001 09 17.31160 00 50 09.31 +05 21 57.2 19.0   644 – Palomar Mountain/NEAT MPS 36334
2001 09 17.33278 00 50 08.48 +05 21 48.7 18.6   644 – Palomar Mountain/NEAT MPS 36334
2001 09 17.35418 00 50 07.63 +05 21 40.0 19.2   644 – Palomar Mountain/NEAT MPS 36334
2001 09 20.32195 00 48 15.05 +05 00 41.2 18.0   704 – Lincoln Laboratory ETS, New Mexico MPS 36334
2001 09 20.34005 00 48 14.30 +05 00 33.3 18.5   704 – Lincoln Laboratory ETS, New Mexico MPS 36334
2001 09 20.35424 00 48 13.72 +05 00 27.4 18.3   704 – Lincoln Laboratory ETS, New Mexico MPS 36334
2001 09 20.36843 00 48 13.21 +05 00 20.8 19.3   704 – Lincoln Laboratory ETS, New Mexico MPS 36334
2001 09 20.38262 00 48 12.54 +05 00 14.7 18.6   704 – Lincoln Laboratory ETS, New Mexico MPS 36334
2001 09 25.22010 00 44 58.92 +04 24 45.9 18.2 R 699 – Lowell Observatory-LONEOS MPS 49427
2001 09 25.24200 00 44 58.02 +04 24 36.7   699 – Lowell Observatory-LONEOS MPS 49427
2001 09 25.26386 00 44 57.03 +04 24 27.4   699 – Lowell Observatory-LONEOS MPS 49427
2001 09 25.28571 00 44 56.14 +04 24 17.1   699 – Lowell Observatory-LONEOS MPS 49427
2001 09 26.33116 00 44 12.93 +04 16 28.5 18.4   704 – Lincoln Laboratory ETS, New Mexico MPS 49427
2001 09 26.34620 00 44 12.31 +04 16 21.7 19.3   704 – Lincoln Laboratory ETS, New Mexico MPS 49427
2001 09 26.36077 00 44 11.65 +04 16 14.8 19.3   704 – Lincoln Laboratory ETS, New Mexico MPS 49427
2001 09 26.37536 00 44 11.02 +04 16 08.4 18.9   704 – Lincoln Laboratory ETS, New Mexico MPS 49427
2001 09 26.38995 00 44 10.40 +04 16 01.2 18.6   704 – Lincoln Laboratory ETS, New Mexico MPS 49427
2001 09 28.24553 00 42 53.23 +04 02 04.5 18.0   704 – Lincoln Laboratory ETS, New Mexico MPS 36334
2001 09 28.26092 00 42 52.58 +04 01 57.9 18.0   704 – Lincoln Laboratory ETS, New Mexico MPS 36334
2001 09 28.27595 00 42 51.97 +04 01 51.2 18.7   704 – Lincoln Laboratory ETS, New Mexico MPS 36334
2001 09 28.29108 00 42 51.27 +04 01 43.9 18.2   704 – Lincoln Laboratory ETS, New Mexico MPS 36334
2001 09 28.30613 00 42 50.61 +04 01 37.1 18.3   704 – Lincoln Laboratory ETS, New Mexico MPS 36334
2001 10 06.39615 00 37 09.53 +03 00 32.6 18.1   644 – Palomar Mountain/NEAT MPS 38021
2001 10 06.40701 00 37 09.07 +03 00 27.7 18.3   644 – Palomar Mountain/NEAT MPS 38021
2001 10 06.41765 00 37 08.61 +03 00 22.9 18.4   644 – Palomar Mountain/NEAT MPS 38021
2001 10 13.17732 00 32 32.63 +02 10 54.9 18.5   704 – Lincoln Laboratory ETS, New Mexico MPS 38021
2001 10 13.19431 00 32 31.89 +02 10 48.1 18.8   704 – Lincoln Laboratory ETS, New Mexico MPS 38021
2001 10 13.21020 00 32 31.27 +02 10 41.4 18.8   704 – Lincoln Laboratory ETS, New Mexico MPS 38021
2001 10 13.21247 00 32 31.28 +02 10 40.1 18.2 R 699 – Lowell Observatory-LONEOS MPS 39331
2001 10 13.22608 00 32 30.60 +02 10 34.5 19.0   704 – Lincoln Laboratory ETS, New Mexico MPS 38021
2001 10 13.23587 00 32 30.36 +02 10 30.0   699 – Lowell Observatory-LONEOS MPS 39331
2001 10 13.24194 00 32 29.93 +02 10 28.2 18.7   704 – Lincoln Laboratory ETS, New Mexico MPS 38021
2001 10 13.25930 00 32 29.37 +02 10 20.7   699 – Lowell Observatory-LONEOS MPS 39331
2001 10 13.28273 00 32 28.39 +02 10 10.3   699 – Lowell Observatory-LONEOS MPS 39331
2001 10 15.15929 00 31 15.58 +01 56 59.1 18.7   704 – Lincoln Laboratory ETS, New Mexico MPS 38021
2001 10 15.17513 00 31 14.97 +01 56 52.6 19.3   704 – Lincoln Laboratory ETS, New Mexico MPS 38021
2001 10 15.20680 00 31 13.58 +01 56 39.0 19.5   704 – Lincoln Laboratory ETS, New Mexico MPS 38021
2001 10 15.22261 00 31 13.03 +01 56 32.6 18.8   704 – Lincoln Laboratory ETS, New Mexico MPS 38021
2001 10 15.38637 00 31 06.74 +01 55 26.4 19.6   608 – Haleakala-AMOS MPS 43797
2001 10 15.39723 00 31 06.32 +01 55 21.9 19.4   608 – Haleakala-AMOS MPS 43797
2001 10 15.40808 00 31 05.85 +01 55 17.3 19.4   608 – Haleakala-AMOS MPS 43797
2001 10 16.20733 00 30 35.60 +01 49 45.6 18.9 V 291 – LPL/Spacewatch II MPS 39331
2001 10 16.22811 00 30 34.79 +01 49 37.0 18.8 V 291 – LPL/Spacewatch II MPS 39331
2001 10 16.24535 00 30 34.07 +01 49 29.8 18.7   704 – Lincoln Laboratory ETS, New Mexico MPS 38021
2001 10 16.24852 00 30 34.00 +01 49 28.6 18.8 V 291 – LPL/Spacewatch II MPS 39331
2001 10 16.26107 00 30 33.47 +01 49 23.3 19.1   704 – Lincoln Laboratory ETS, New Mexico MPS 38021
2001 10 16.27679 00 30 32.90 +01 49 16.4 19.4   704 – Lincoln Laboratory ETS, New Mexico MPS 38021
2001 10 16.29252 00 30 32.26 +01 49 10.1 19.1   704 – Lincoln Laboratory ETS, New Mexico MPS 38021
2001 10 16.30826 00 30 31.67 +01 49 04.3 19.1   704 – Lincoln Laboratory ETS, New Mexico MPS 38021
2001 10 17.27818 00 29 55.51 +01 42 27.8 18.5   644 – Palomar Mountain/NEAT MPS 40408
2001 10 17.29913 00 29 54.70 +01 42 19.2 18.4   644 – Palomar Mountain/NEAT MPS 40408
